Change the Weather History Date:

Friday, January 18, 2013

  Actual Average Record
Temperature  
Mean Temperature 58 °F -  
Max Temperature 66 °F 65 °F 68 °F (2001)
Min Temperature 51 °F 49 °F 41 °F (2008)
Degree Days  
Heating Degree Days 6    
Growing Degree Days 8 (Base 50)    
Moisture  
Dew Point 50 °F    
Average Humidity 75    
Maximum Humidity 100    
Minimum Humidity 43    
Precipitation  
Precipitation 0.00 in 0.01 in - ()
Sea Level Pressure  
Sea Level Pressure 29.98 in    
Wind  
Wind Speed 7 mph ()    
Max Wind Speed 10 mph    
Max Gust Speed -    
Visibility 1.9 miles    
Events Fog    
Averages and records for this station are not official NWS values.
T = Trace of Precipitation, MM = Missing Value Source: Averaged Metar Reports

Daily Weather History Graph

Daily Weather History Graph

Search for Another Location

Airport or City:

Trip Planner

Search our weather history database for the weather conditions in past years. The results will help you decide how hot, cold, wet, or windy it might be!

Date:

Astronomy

Jan. 18, 2013 Rise Set
Actual Time 6:50 AM EET 5:19 PM EET
Civil Twilight 6:24 AM EET 5:44 PM EET
Nautical Twilight 5:55 AM EET 6:14 PM EET
Astronomical Twilight 5:26 AM EET 6:42 PM EET
Moon 10:52 AM EET (1/18) No Moon Set
Length of Visible Light 11h 20m
Length of Day
10h 28m
Waxing Crescent, 44% of the Moon is Illuminated
Jan 18
Waxing Crescent
Jan 19
First Quarter
Jan 27
Full
Feb 3
Last Quarter
Feb 10
New

Hourly Weather History & Observations

Time (EET) Temp. Dew Point Humidity Pressure Visibility Wind Dir Wind Speed Gust Speed Precip Events Conditions
12:00 AM 57.2 °F 50.0 °F 77% 30.01 in - ENE 9.2 mph - N/A   Clear
12:30 AM 57.2 °F 50.0 °F 77% 30.01 in - ENE 9.2 mph - N/A   Clear
1:00 AM 55.4 °F 51.8 °F 88% 30.01 in - ENE 6.9 mph - N/A   Clear
1:30 AM 55.4 °F 51.8 °F 88% 30.01 in - ENE 6.9 mph - N/A   Clear
2:00 AM 55 °F 52 °F 88% 29.77 in 6 mi ENE 9.2 mph - -  
2:00 AM 55.4 °F 51.8 °F 88% 30.01 in - ENE 9.2 mph - N/A   Clear
2:30 AM 55.4 °F 51.8 °F 88% 30.01 in - ENE 9.2 mph - N/A   Clear
3:00 AM 53.6 °F 51.8 °F 94% 30.01 in 0.6 mi East 10.4 mph - N/A   Mist
3:10 AM 53.6 °F 51.8 °F 94% 30.01 in 0.5 mi East 10.4 mph - N/A Fog Fog
3:30 AM 53.6 °F 51.8 °F 94% 30.01 in 0.5 mi East 10.4 mph - N/A Fog Fog
4:00 AM 55.4 °F 53.6 °F 94% 30.01 in 0.5 mi ENE 9.2 mph - N/A Fog Fog
4:30 AM 55.4 °F 55.4 °F 100% 30.01 in 0.5 mi ENE 10.4 mph - N/A Fog Fog
5:00 AM 53.6 °F 53.6 °F 100% 30.01 in 0.5 mi ENE 9.2 mph - N/A Fog Fog
5:30 AM 53.6 °F 53.6 °F 100% 30.01 in 0.5 mi ENE 10.4 mph - N/A Fog Fog
6:00 AM 53.6 °F 53.6 °F 100% 30.01 in 0.9 mi ENE 10.4 mph - N/A   Mist
6:30 AM 51.8 °F 51.8 °F 100% 30.01 in 1.2 mi ENE 9.2 mph - N/A   Mist
7:00 AM 51.8 °F 51.8 °F 100% 30.01 in 1.2 mi ENE 6.9 mph - N/A   Mist
7:30 AM 51.8 °F 51.8 °F 100% 30.01 in 1.2 mi NE 8.1 mph - N/A   Mist
8:00 AM 52 °F 51 °F 96% 30.04 in 1 mi NE 8.1 mph - -   Mist
8:00 AM 51.8 °F 51.8 °F 100% 30.01 in 1.2 mi NE 8.1 mph - N/A   Mist
8:15 AM 53.6 °F 53.6 °F 100% 30.01 in 0.5 mi NE 6.9 mph - N/A   Unknown
8:30 AM 53.6 °F 53.6 °F 100% 30.01 in 0.5 mi NE 6.9 mph - N/A   Unknown
9:00 AM 55.4 °F 55.4 °F 100% 30.01 in 0.5 mi NE 4.6 mph - N/A   Unknown
9:15 AM 55.4 °F 55.4 °F 100% 30.01 in 0.9 mi NE 5.8 mph - N/A   Mist
9:30 AM 57.2 °F 57.2 °F 100% 30.01 in 1.6 mi ENE 9.2 mph - N/A   Mist
10:00 AM 59.0 °F 55.4 °F 88% 30.01 in 1.9 mi NNE 10.4 mph - N/A   Mist
10:30 AM 60.8 °F 55.4 °F 82% 30.01 in 1.9 mi NNE 6.9 mph - N/A   Mist
11:00 AM 62.6 °F 53.6 °F 72% 30.01 in 2.5 mi NNE 5.8 mph - N/A   Partly Cloudy
11:30 AM 62.6 °F 53.6 °F 72% 30.01 in 2.5 mi NNE 5.8 mph - N/A   Partly Cloudy
12:00 PM 62.6 °F 51.8 °F 68% 29.98 in 3.7 mi NNE 5.8 mph - N/A   Partly Cloudy
12:30 PM 64.4 °F 50.0 °F 59% 29.95 in 2.5 mi North 5.8 mph - N/A   Haze
1:00 PM 66.2 °F 51.8 °F 60% 29.95 in 2.5 mi NW 3.5 mph - N/A   Haze
1:30 PM 66.2 °F 51.8 °F 60% 29.95 in 2.5 mi NW 3.5 mph - N/A   Haze
2:00 PM 67 °F 53 °F 50% 29.96 in 4 mi NNW 5.8 mph - -   Haze
2:00 PM 66.2 °F 53.6 °F 64% 29.95 in 3.7 mi NNW 5.8 mph - N/A   Unknown
2:30 PM 66.2 °F 50.0 °F 56% 29.92 in 3.7 mi NNE 5.8 mph - N/A   Unknown
3:00 PM 66.2 °F 50.0 °F 56% 29.92 in - NNE 5.8 mph - N/A   Clear
3:30 PM 66.2 °F 50.0 °F 56% 29.92 in - North 3.5 mph - N/A   Clear
4:00 PM 66.2 °F 48.2 °F 52% 29.92 in - ESE 3.5 mph - N/A   Clear
4:30 PM 66.2 °F 42.8 °F 43% 29.92 in - NE 3.5 mph - N/A   Clear
5:00 PM 66.2 °F 44.6 °F 46% 29.92 in - NE 3.5 mph - N/A   Clear
5:30 PM 66.2 °F 44.6 °F 46% 29.92 in - NE 3.5 mph - N/A   Clear
6:00 PM 64.4 °F 42.8 °F 45% 29.95 in - NNW 4.6 mph - N/A   Clear
6:30 PM 64.4 °F 42.8 °F 45% 29.95 in - NNW 4.6 mph - N/A   Clear
7:00 PM 64.4 °F 42.8 °F 45% 29.98 in - North 3.5 mph - N/A   Clear
7:30 PM 64.4 °F 42.8 °F 45% 29.98 in - North 3.5 mph - N/A   Clear
8:00 PM 62 °F 46 °F 45% 30.01 in 6 mi NW 3.5 mph - -  
8:00 PM 62.6 °F 46.4 °F 55% 29.98 in - NW 3.5 mph - N/A   Clear
8:30 PM 62.6 °F 46.4 °F 55% 29.98 in - NW 3.5 mph - N/A   Clear
9:00 PM 59.0 °F 46.4 °F 63% 30.01 in - ENE 2.3 mph - N/A   Clear
9:30 PM 59.0 °F 46.4 °F 63% 30.01 in - ENE 2.3 mph - N/A   Clear
10:00 PM 59.0 °F 44.6 °F 59% 30.01 in - East 4.6 mph - N/A   Clear
10:30 PM 59.0 °F 44.6 °F 59% 29.98 in - ESE 8.1 mph - N/A   Clear
11:00 PM 59.0 °F 46.4 °F 63% 29.98 in - ESE 9.2 mph - N/A   Clear
11:30 PM 55.4 °F 44.6 °F 67% 29.98 in - ESE 5.8 mph - N/A   Clear